Satellite-Ground Cal/Val Site Overpasses Predictions

Prediction of Satellite NPP Overpassing Cal/Val Site: Antarctic Dome C

Ground Cal/Val Site Location: Latitude: -75.10, Longitude: 123.35; Satellite-Ground Site NADIR distance within 100 km.

Table of predicted overpasses for the next 14.0 days since TLE Epoch: 6/3/2023
Interval Starting Time Ending Time Minimum Distance Time Minimum Distance (km)
1 06/04/2023 07:33:05 06/04/2023 07:33:35 06/04/2023 07:33:20 0.50
2 06/07/2023 14:56:29 06/07/2023 14:56:58 06/07/2023 14:56:43 16.35
3 06/08/2023 14:37:48 06/08/2023 14:38:00 06/08/2023 14:37:54 90.63
4 06/09/2023 07:39:18 06/09/2023 07:39:46 06/09/2023 07:39:32 36.16
5 06/10/2023 07:20:31 06/10/2023 07:20:50 06/10/2023 07:20:41 74.06
6 06/12/2023 15:02:43 06/12/2023 15:03:07 06/12/2023 15:02:55 53.10
7 06/13/2023 14:43:53 06/13/2023 14:44:17 06/13/2023 14:44:05 55.91
8 06/14/2023 07:45:32 06/14/2023 07:45:52 06/14/2023 07:45:42 71.29
